Previsão horária em Celestynow

Hoje, 31 Julho, Sábado

Tempo Temperatura Precipitação Vento Pressão Humidade
00:00 +20°C° 0 mm 1 m/s 744 mmHg 64%
01:00 +19°C° 0 mm 2 m/s 744 mmHg 64%
02:00 +19°C° 0 mm 2 m/s 744 mmHg 66%
03:00 +19°C° 0 mm 2 m/s 744 mmHg 67%
04:00 +18°C° 0 mm 2 m/s 743 mmHg 68%
05:00 +20°C° 0 mm 3 m/s 743 mmHg 67%
06:00 +21°C° 0 mm 3 m/s 744 mmHg 65%
07:00 +22°C° 0 mm 4 m/s 744 mmHg 63%
08:00 +23°C° 0 mm 5 m/s 744 mmHg 60%
09:00 +25°C° 0 mm 5 m/s 744 mmHg 56%
10:00 +26°C° 0 mm 6 m/s 744 mmHg 52%
11:00 +27°C° 0 mm 6 m/s 744 mmHg 47%
12:00 +28°C° 0 mm 7 m/s 744 mmHg 42%
13:00 +28°C° 0 mm 7 m/s 744 mmHg 37%
14:00 +28°C° 0 mm 7 m/s 744 mmHg 36%
15:00 +28°C° 0 mm 7 m/s 744 mmHg 35%
16:00 +28°C° 0 mm 7 m/s 744 mmHg 33%
17:00 +26°C° 0 mm 6 m/s 744 mmHg 38%
18:00 +25°C° 0 mm 5 m/s 744 mmHg 44%
19:00 +22°C° 0 mm 3 m/s 744 mmHg 49%
20:00 +21°C° 0 mm 3 m/s 745 mmHg 53%
21:00 +19°C° 0 mm 3 m/s 745 mmHg 58%
22:00 +18°C° 0 mm 2 m/s 745 mmHg 62%
23:00 +17°C° 0 mm 2 m/s 746 mmHg 64%

Amanhã, 1 Agosto, Domingo

Tempo Temperatura Precipitação Vento Pressão Humidade
00:00 +17°C° 0 mm 2 m/s 746 mmHg 66%
01:00 +16°C° 0 mm 3 m/s 746 mmHg 68%
02:00 +16°C° 0 mm 3 m/s 746 mmHg 69%
03:00 +16°C° 0 mm 2 m/s 746 mmHg 71%
04:00 +15°C° 0 mm 2 m/s 746 mmHg 73%
05:00 +16°C° 0 mm 2 m/s 746 mmHg 70%
06:00 +19°C° 0 mm 1 m/s 746 mmHg 67%
07:00 +20°C° 0 mm 1 m/s 745 mmHg 64%
08:00 +21°C° 0.1 mm 1 m/s 745 mmHg 62%
09:00 +20°C° 0.1 mm 2 m/s 745 mmHg 60%
10:00 +21°C° 0.1 mm 2 m/s 745 mmHg 58%
11:00 +20°C° 1.5 mm 2 m/s 746 mmHg 67%
12:00 +19°C° 1.5 mm 2 m/s 746 mmHg 76%
13:00 +17°C° 1.5 mm 2 m/s 746 mmHg 85%
14:00 +18°C° 0.4 mm 2 m/s 746 mmHg 83%
15:00 +18°C° 0.4 mm 2 m/s 745 mmHg 80%
16:00 +18°C° 0.4 mm 3 m/s 745 mmHg 78%
17:00 +18°C° 0 mm 2 m/s 745 mmHg 80%
18:00 +18°C° 0 mm 2 m/s 745 mmHg 82%
19:00 +17°C° 0 mm 2 m/s 745 mmHg 84%
20:00 +16°C° 0 mm 2 m/s 745 mmHg 87%
21:00 +15°C° 0 mm 2 m/s 745 mmHg 90%
22:00 +15°C° 0 mm 2 m/s 745 mmHg 93%
23:00 +15°C° 0 mm 2 m/s 745 mmHg 92%

Depois de amanhã, 2 Agosto, Segunda-feira

Tempo Temperatura Precipitação Vento Pressão Humidade
00:00 +15°C° 0 mm 2 m/s 745 mmHg 92%
01:00 +15°C° 0 mm 2 m/s 745 mmHg 92%
02:00 +15°C° 0 mm 2 m/s 745 mmHg 90%
03:00 +15°C° 0 mm 2 m/s 745 mmHg 88%
04:00 +16°C° 0 mm 2 m/s 745 mmHg 86%
05:00 +16°C° 0.1 mm 3 m/s 745 mmHg 83%
06:00 +17°C° 0.1 mm 3 m/s 745 mmHg 81%
07:00 +18°C° 0.1 mm 3 m/s 746 mmHg 78%
08:00 +19°C° 0.2 mm 4 m/s 746 mmHg 72%
09:00 +20°C° 0.2 mm 4 m/s 746 mmHg 65%
10:00 +22°C° 0.2 mm 4 m/s 746 mmHg 59%
11:00 +22°C° 0.3 mm 5 m/s 746 mmHg 56%
12:00 +23°C° 0.3 mm 5 m/s 746 mmHg 52%
13:00 +25°C° 0.3 mm 5 m/s 746 mmHg 49%
14:00 +23°C° 0.2 mm 5 m/s 746 mmHg 54%
15:00 +22°C° 0.2 mm 5 m/s 747 mmHg 60%
16:00 +21°C° 0.2 mm 4 m/s 747 mmHg 65%
17:00 +20°C° 0.3 mm 4 m/s 747 mmHg 68%
18:00 +19°C° 0.3 mm 3 m/s 747 mmHg 71%
19:00 +18°C° 0.3 mm 3 m/s 747 mmHg 74%
20:00 +17°C° 0 mm 3 m/s 748 mmHg 75%
21:00 +16°C° 0 mm 3 m/s 748 mmHg 77%
22:00 +15°C° 0 mm 2 m/s 749 mmHg 79%
23:00 +15°C° 0 mm 2 m/s 749 mmHg 80%

3 Agosto, Terça-feira

Tempo Temperatura Precipitação Vento Pressão Humidade
00:00 +14°C° 0 mm 3 m/s 749 mmHg 82%
01:00 +13°C° 0 mm 3 m/s 749 mmHg 84%
02:00 +13°C° 0 mm 3 m/s 749 mmHg 85%
03:00 +13°C° 0 mm 3 m/s 749 mmHg 86%
04:00 +13°C° 0 mm 3 m/s 750 mmHg 87%
05:00 +14°C° 0 mm 3 m/s 750 mmHg 82%
06:00 +16°C° 0 mm 3 m/s 750 mmHg 77%
07:00 +17°C° 0 mm 3 m/s 750 mmHg 72%
08:00 +19°C° 0 mm 3 m/s 750 mmHg 65%
09:00 +20°C° 0 mm 3 m/s 750 mmHg 57%
10:00 +22°C° 0 mm 3 m/s 751 mmHg 49%
11:00 +24°C° 0 mm 3 m/s 750 mmHg 46%
12:00 +25°C° 0 mm 3 m/s 750 mmHg 44%
13:00 +26°C° 0 mm 2 m/s 750 mmHg 41%
14:00 +25°C° 0 mm 2 m/s 750 mmHg 42%
15:00 +25°C° 0 mm 1 m/s 749 mmHg 43%
16:00 +25°C° 0 mm 1 m/s 749 mmHg 44%
17:00 +24°C° 0 mm 1 m/s 749 mmHg 47%
18:00 +23°C° 0 mm 2 m/s 749 mmHg 51%
19:00 +21°C° 0 mm 2 m/s 749 mmHg 54%
20:00 +21°C° 0 mm 2 m/s 749 mmHg 55%
21:00 +20°C° 0 mm 3 m/s 748 mmHg 57%
22:00 +19°C° 0 mm 3 m/s 748 mmHg 58%
23:00 +19°C° 0 mm 3 m/s 748 mmHg 60%

4 Agosto, Quarta-feira

Tempo Temperatura Precipitação Vento Pressão Humidade
00:00 +18°C° 0 mm 3 m/s 748 mmHg 61%
01:00 +17°C° 0 mm 3 m/s 748 mmHg 63%
02:00 +17°C° 0.2 mm 3 m/s 748 mmHg 68%
03:00 +16°C° 0.2 mm 3 m/s 747 mmHg 74%
04:00 +16°C° 0.2 mm 2 m/s 747 mmHg 79%
05:00 +16°C° 0.4 mm 2 m/s 747 mmHg 78%
06:00 +17°C° 0.4 mm 2 m/s 747 mmHg 78%
07:00 +18°C° 0.4 mm 2 m/s 747 mmHg 77%
08:00 +18°C° 0.3 mm 2 m/s 747 mmHg 77%
09:00 +19°C° 0.3 mm 2 m/s 747 mmHg 76%
10:00 +19°C° 0.3 mm 3 m/s 748 mmHg 76%
11:00 +19°C° 1.2 mm 3 m/s 747 mmHg 81%
12:00 +18°C° 1.2 mm 3 m/s 747 mmHg 86%
13:00 +17°C° 1.2 mm 3 m/s 747 mmHg 91%
14:00 +17°C° 0.7 mm 3 m/s 747 mmHg 91%
15:00 +17°C° 0.7 mm 3 m/s 747 mmHg 92%
16:00 +17°C° 0.7 mm 2 m/s 747 mmHg 92%
17:00 +17°C° 0 mm 2 m/s 747 mmHg 91%
18:00 +17°C° 0 mm 2 m/s 747 mmHg 90%
19:00 +17°C° 0 mm 2 m/s 747 mmHg 89%
20:00 +16°C° 0 mm 1 m/s 747 mmHg 90%
21:00 +16°C° 0 mm 1 m/s 747 mmHg 91%
22:00 +15°C° 0 mm 1 m/s 747 mmHg 92%
23:00 +15°C° 0 mm 1 m/s 747 mmHg 93%

5 Agosto, Quinta-feira

Tempo Temperatura Precipitação Vento Pressão Humidade
00:00 +15°C° 0 mm 1 m/s 746 mmHg 93%
01:00 +15°C° 0 mm 1 m/s 746 mmHg 93%
02:00 +15°C° 0.1 mm 1 m/s 746 mmHg 93%
03:00 +15°C° 0.1 mm 1 m/s 746 mmHg 94%
04:00 +15°C° 0.1 mm 2 m/s 745 mmHg 94%
05:00 +15°C° 0 mm 2 m/s 745 mmHg 93%
06:00 +15°C° 0 mm 2 m/s 745 mmHg 92%
07:00 +16°C° 0 mm 3 m/s 746 mmHg 91%
08:00 +17°C° 0.1 mm 3 m/s 746 mmHg 87%
09:00 +17°C° 0.1 mm 4 m/s 746 mmHg 83%
10:00 +18°C° 0.1 mm 4 m/s 746 mmHg 79%
11:00 +19°C° 0.3 mm 4 m/s 745 mmHg 75%
12:00 +20°C° 0.3 mm 4 m/s 745 mmHg 71%
13:00 +21°C° 0.3 mm 4 m/s 745 mmHg 67%
14:00 +21°C° 0.2 mm 4 m/s 745 mmHg 66%
15:00 +21°C° 0.2 mm 4 m/s 745 mmHg 66%
16:00 +21°C° 0.2 mm 4 m/s 744 mmHg 65%
17:00 +20°C° 0.1 mm 3 m/s 744 mmHg 71%
18:00 +19°C° 0.1 mm 3 m/s 744 mmHg 76%
19:00 +18°C° 0.1 mm 2 m/s 744 mmHg 82%
20:00 +17°C° 0 mm 2 m/s 744 mmHg 85%
21:00 +16°C° 0 mm 2 m/s 744 mmHg 88%
22:00 +16°C° 0 mm 2 m/s 744 mmHg 91%
23:00 +16°C° 0 mm 2 m/s 744 mmHg 91%
Mostrar mais

Necessitamos do seu Consentimento

A Meteoprog e os seus Fornecedores de Serviços podem armazenar e aceder a dados pessoais como cookies, identificadores do dispositivo ou outras tecnologias semelhantes existentes no seu dispositivo e processar estes dados para personalizar conteúdos e anúncios, assim como funcionalidades nas redes sociais e análise de tráfego.

  • Armazenar e/ou aceder a informações no seu dispositivo

    Os cookies, identificadores do dispositivo ou outras informações podem ser armazenados ou acedidos no seu dispositivo, para os fins acima indicados.

  • Anúncios e conteúdos personalizados, medição de anúncios e conteúdos, dados sobre o público-alvo e desenvolvimento de produtos

    Os anúncios e os conteúdos podem ser personalizados com base num perfil. Podem ser adicionados dados adicionais para uma maior personalização dos anúncios e dos conteúdos. A eficácia dos anúncios e dos conteúdos pode ser medida. Podem ser obtidas informações sobre o público que visualizou os anúncios e os conteúdos. Estes dados podem ser usados para desenvolver ou melhorar sistemas, softwares ou a experiência do utilizador.

Ao clicar em "Eu concordo”, permitirá o uso de cookies, identificadores do dispositivo e web beacons mencionados ou outras tecnologias semelhantes. As configurações do navegador do seu dispositivo podem ser alteradas.

Para certos fins, podem ser invocados interesses legítimos ao invés de consentimento. Pode ler mais informação sobre este assunto na nossa Política de Privacidade e Cookies.